FW1293 Weather Reports


time (UTC)temp
F
wind
direction
speed
knots
gust
knots
rain 1hr
in
rain 24hr
in
rain mn
in
humidity
%
barometer
mb
20260507104511 38 15 0.0 0.0 0.00 0.68 0.00 96 1008.6
20260507103008 38 103 0.0 0.0 0.00 0.68 0.00 96 1008.6
20260507101506 38 104 0.0 1.7 0.00 0.68 0.00 96 1008.7
20260507100003 38 103 0.0 1.7 0.00 0.68 0.00 96 1008.4
20260507094600 38 26 0.0 0.9 0.00 0.68 0.00 96 1008.4
20260507093100 38 61 0.9 3.5 0.00 0.68 0.00 96 1008.5
20260507091556 38 80 0.0 0.0 0.00 0.68 0.00 97 1008.5
20260507090055 38 80 0.0 0.0 0.00 0.68 0.00 97 1008.5
20260507084555 38 120 0.0 0.0 0.00 0.68 0.00 97 1008.7
20260507083055 38 121 0.0 0.0 0.00 0.68 0.68 97 1008.5
20260507081549 38 213 0.0 1.7 0.00 0.68 0.68 97 1008.7
20260507080113 38 165 0.0 2.6 0.00 0.68 0.68 97 1008.8
20260507074547 38 113 0.0 2.6 0.00 0.68 0.68 97 1008.8
20260507073050 38 207 0.0 2.6 0.00 0.69 0.68 97 1008.4
20260507071558 37 219 0.0 2.6 0.00 0.69 0.68 96 1008.4
20260507070040 38 242 0.9 2.6 0.00 0.69 0.68 96 1008.1
20260507064542 38 178 0.0 0.0 0.00 0.69 0.68 97 1008.2
20260507063040 38 178 0.0 0.0 0.00 0.71 0.68 97 1008.2
20260507061537 38 192 0.0 0.0 0.00 0.71 0.68 97 1008.2
20260507060035 38 211 0.0 1.7 0.00 0.71 0.68 97 1008.5
20260507054533 38 212 0.0 1.7 0.00 0.71 0.68 97 1008.6
20260507053032 38 155 0.9 1.7 0.00 0.83 0.68 97 1008.8
20260507051532 38 162 0.0 1.7 0.00 0.83 0.68 97 1008.6
20260507050031 38 97 0.0 4.3 0.00 0.83 0.68 96 1008.8
20260507044623 39 211 0.0 2.6 0.00 0.83 0.68 96 1008.7
20260507043100 38 217 1.7 2.6 0.00 0.86 0.68 96 1008.5
20260507041602 38 202 0.0 2.6 0.00 0.86 0.68 96 1008.6
20260507040104 38 205 0.0 0.0 0.00 0.86 0.68 96 1008.8
20260507034558 39 205 0.0 0.9 0.00 0.86 0.68 96 1008.6
20260507033053 39 205 0.9 1.7 0.00 0.86 0.68 97 1008.4
20260507031548 39 205 0.0 1.7 0.00 0.86 0.68 97 1008.7
20260507030053 39 189 0.0 1.7 0.00 0.86 0.68 97 1008.9
20260507024547 39 98 0.0 2.6 0.01 0.86 0.68 97 1008.8
20260507023046 39 98 0.0 0.9 0.01 0.86 0.68 97 1009.0
20260507021545 39 98 0.0 1.7 0.02 0.86 0.68 97 1009.0
20260507020045 40 93 0.0 2.6 0.03 0.86 0.68 97 1008.8
20260507014542 40 182 0.0 7.0 0.03 0.85 0.67 97 1008.5
20260507013040 40 122 0.0 2.6 0.03 0.85 0.67 97 1008.9
20260507011539 40 88 0.9 4.3 0.03 0.84 0.66 97 1008.6
20260507010033 41 61 0.9 5.2 0.02 0.83 0.65 97 1008.7
20260507004531 41 88 1.7 7.0 0.02 0.82 0.64 97 1008.5
20260507003030 41 126 0.9 2.6 0.03 0.82 0.64 97 1008.0
20260507001616 41 218 0.9 2.6 0.03 0.81 0.63 97 1007.7
20260506234559 41 80 0.9 3.5 0.03 0.80 0.62 97 1007.2
20260506233054 42 152 1.7 7.0 0.02 0.79 0.61 97 1006.7
20260506231552 42 96 0.9 4.3 0.01 0.78 0.60 97 1006.6
20260506230052 42 204 0.9 4.3 0.01 0.78 0.60 97 1006.5
20260506224546 43 135 0.0 6.1 0.01 0.77 0.59 96 1006.3
20260506223042 44 128 0.0 3.5 0.01 0.77 0.59 96 1006.1
20260506221539 45 165 0.0 2.6 0.01 0.77 0.59 96 1005.9
20260506220042 45 108 0.0 2.6 0.01 0.77 0.59 96 1005.7
20260506214534 46 182 0.9 4.3 0.00 0.76 0.57 97 1005.8
20260506213034 45 211 0.0 4.3 0.00 0.77 0.57 96 1005.7
20260506211533 46 134 0.0 4.3 0.01 0.77 0.57 96 1005.8
20260506210027 47 111 0.0 3.5 0.03 0.77 0.57 96 1005.7
20260506204524 48 86 0.9 3.5 0.03 0.77 0.57 97 1005.5
20260506203030 48 215 0.9 2.6 0.05 0.83 0.57 96 1005.4
20260506201522 48 138 0.0 3.5 0.08 0.82 0.56 96 1005.5
20260506200025 48 129 0.0 5.2 0.06 0.80 0.55 96 1005.4
20260506194619 49 96 1.7 6.1 0.07 0.80 0.55 96 1005.4
20260506193047 51 113 2.6 5.2 0.05 0.78 0.53 96 1005.4
20260506191551 53 135 1.7 7.0 0.02 0.75 0.50 94 1005.3
20260506190049 54 321 0.9 4.3 0.01 0.74 0.49 95 1005.2
20260506184553 54 9 0.9 4.3 0.00 0.73 0.48 95 1005.2
20260506183043 54 302 1.7 8.7 0.02 0.73 0.48 94 1005.1
20260506181540 54 283 2.6 7.0 0.03 0.73 0.48 96 1005.2
20260506180037 54 334 0.9 3.5 0.06 0.73 0.48 96 1005.6
20260506174534 54 38 0.0 2.6 0.08 0.73 0.48 97 1005.8
20260506173042 54 36 0.9 4.3 0.10 0.71 0.46 96 1006.0
20260506171535 53 308 0.9 4.3 0.12 0.69 0.44 97 1006.0
20260506170104 53 302 1.7 5.2 0.13 0.67 0.42 97 1006.0
20260506164601 53 323 1.7 6.1 0.13 0.65 0.40 97 1006.0
20260506163126 53 315 1.7 5.2 0.11 0.61 0.36 96 1006.1
20260506161554 53 26 1.7 7.8 0.10 0.56 0.32 96 1006.3
20260506160052 53 321 1.7 7.8 0.11 0.54 0.28 96 1006.6
20260506154553 53 15 2.6 6.1 0.11 0.52 0.27 96 1006.7
20260506153020 53 52 1.7 7.0 0.10 0.49 0.24 96 1006.9
20260506151519 53 69 0.9 7.8 0.09 0.47 0.22 96 1006.9
20260506150046 53 325 1.7 7.0 0.07 0.43 0.18 96 1007.1
20260506144546 53 5 1.7 7.8 0.06 0.40 0.15 96 1007.2
20260506143044 53 351 1.7 7.8 0.07 0.39 0.14 96 1007.2
20260506141543 53 299 0.9 6.1 0.07 0.38 0.13 96 1007.3
20260506140042 53 298 1.7 8.7 0.07 0.36 0.11 95 1007.3
20260506134540 53 294 2.6 7.0 0.07 0.34 0.09 96 1007.2
20260506133036 52 348 1.7 7.0 0.06 0.32 0.07 97 1007.2
20260506131537 52 311 0.9 4.3 0.06 0.31 0.06 97 1007.4
20260506130032 51 22 0.0 3.5 0.04 0.28 0.04 97 1007.6
20260506124532 51 219 0.9 3.5 0.02 0.27 0.02 96 1007.8
20260506123028 51 69 0.0 1.7 0.01 0.26 0.01 96 1007.9
20260506121527 52 68 0.9 7.0 0.00 0.25 0.00 95 1007.7
20260506120024 51 284 5.2 18.2 0.00 0.25 0.00 97 1007.7
20260506114524 50 94 6.1 10.4 0.00 0.25 0.00 96 1007.6
20260506113020 50 96 2.6 5.2 0.00 0.25 0.00 95 1008.0
20260506111526 50 190 1.7 6.1 0.00 0.25 0.00 95 1007.8
20260506110017 50 108 0.0 4.3 0.00 0.25 0.00 94 1007.7